Time,TemperatureF,DewpointF,PressureIn,WindDirection,WindDirectionDegrees,WindSpeedMPH,WindSpeedGustMPH,Humidity,HourlyPrecipIn,Conditions,Clouds,dailyrainin,SoftwareType,DateUTC
2013-05-17 00:02:00,55.0,12.0,-100.00,WNW,282,2.0,5.0,18,0.00,,,0.00,,2013-05-17 06:02:00,
2013-05-17 00:11:00,55.0,12.0,-100.00,WNW,282,2.0,5.0,18,0.00,,,0.00,,2013-05-17 06:11:00,
2013-05-17 00:21:00,55.0,12.0,-100.00,WNW,282,2.0,5.0,18,0.00,,,0.00,,2013-05-17 06:21:00,
2013-05-17 00:32:00,55.0,12.0,-100.00,WNW,282,2.0,5.0,18,0.00,,,0.00,,2013-05-17 06:32:00,
2013-05-17 00:40:00,56.0,10.0,-100.00,WNW,285,2.0,5.0,16,0.00,,,0.00,,2013-05-17 06:40:00,
2013-05-17 01:02:00,56.0,10.0,-100.00,WNW,285,2.0,5.0,16,0.00,,,0.00,,2013-05-17 07:02:00,
2013-05-17 01:11:00,56.0,10.0,-100.00,WNW,285,2.0,5.0,16,0.00,,,0.00,,2013-05-17 07:11:00,
2013-05-17 01:21:00,56.0,10.0,-100.00,WNW,285,2.0,5.0,16,0.00,,,0.00,,2013-05-17 07:21:00,
2013-05-17 01:32:00,56.0,10.0,-100.00,WNW,285,2.0,5.0,16,0.00,,,0.00,,2013-05-17 07:32:00,
2013-05-17 01:40:00,62.0,12.0,-100.00,WNW,295,2.0,8.0,14,0.00,,,0.00,,2013-05-17 07:40:00,
2013-05-17 02:02:00,62.0,12.0,-100.00,WNW,295,2.0,8.0,14,0.00,,,0.00,,2013-05-17 08:02:00,
2013-05-17 02:12:00,62.0,12.0,-100.00,WNW,295,2.0,8.0,14,0.00,,,0.00,,2013-05-17 08:12:00,
2013-05-17 02:23:00,62.0,12.0,-100.00,WNW,295,2.0,8.0,14,0.00,,,0.00,,2013-05-17 08:23:00,
2013-05-17 02:40:00,59.0,13.0,-100.00,South,177,2.0,5.0,16,-99.99,,,0.00,,2013-05-17 08:40:00,
2013-05-17 03:02:00,59.0,13.0,-100.00,South,177,2.0,5.0,16,-99.99,,,0.00,,2013-05-17 09:02:00,
2013-05-17 03:12:00,59.0,13.0,-100.00,South,177,2.0,5.0,16,-99.99,,,0.00,,2013-05-17 09:12:00,
2013-05-17 03:22:00,59.0,13.0,-100.00,South,177,2.0,5.0,16,-99.99,,,0.00,,2013-05-17 09:22:00,
2013-05-17 03:33:00,59.0,13.0,-100.00,South,177,2.0,5.0,16,-99.99,,,0.00,,2013-05-17 09:33:00,
2013-05-17 03:40:00,57.0,13.0,-100.00,SE,136,2.0,7.0,17,0.00,,,0.00,,2013-05-17 09:40:00,
2013-05-17 04:03:00,57.0,13.0,-100.00,SE,136,2.0,7.0,17,0.00,,,0.00,,2013-05-17 10:03:00,
2013-05-17 04:12:00,57.0,13.0,-100.00,SE,136,2.0,7.0,17,0.00,,,0.00,,2013-05-17 10:12:00,
2013-05-17 04:23:00,57.0,13.0,-100.00,SE,136,2.0,7.0,17,0.00,,,0.00,,2013-05-17 10:23:00,
2013-05-17 04:33:00,57.0,13.0,-100.00,SE,136,2.0,7.0,17,0.00,,,0.00,,2013-05-17 10:33:00,
2013-05-17 04:40:00,55.0,14.0,-100.00,WSW,254,1.0,7.0,19,0.00,,,0.00,,2013-05-17 10:40:00,
2013-05-17 05:02:00,55.0,14.0,-100.00,WSW,254,1.0,7.0,19,0.00,,,0.00,,2013-05-17 11:02:00,
2013-05-17 05:12:00,55.0,14.0,-100.00,WSW,254,1.0,7.0,19,0.00,,,0.00,,2013-05-17 11:12:00,
2013-05-17 05:23:00,55.0,14.0,-100.00,WSW,254,1.0,7.0,19,0.00,,,0.00,,2013-05-17 11:23:00,
2013-05-17 05:34:00,55.0,14.0,-100.00,WSW,254,1.0,7.0,19,0.00,,,0.00,,2013-05-17 11:34:00,
2013-05-17 05:40:00,52.0,13.0,-100.00,NW,308,1.0,7.0,21,0.00,,,0.00,,2013-05-17 11:40:00,
2013-05-17 06:03:00,52.0,13.0,-100.00,NW,308,1.0,7.0,21,0.00,,,0.00,,2013-05-17 12:03:00,
2013-05-17 06:12:00,52.0,13.0,-100.00,NW,308,1.0,7.0,21,0.00,,,0.00,,2013-05-17 12:12:00,
2013-05-17 06:23:00,52.0,13.0,-100.00,NW,308,1.0,7.0,21,0.00,,,0.00,,2013-05-17 12:23:00,
2013-05-17 06:32:00,52.0,13.0,-100.00,NW,308,1.0,7.0,21,0.00,,,0.00,,2013-05-17 12:32:00,
2013-05-17 06:40:00,55.0,17.0,-100.00,West,281,1.0,6.0,22,0.00,,,0.00,,2013-05-17 12:40:00,
2013-05-17 07:03:00,55.0,17.0,-100.00,West,281,1.0,6.0,22,0.00,,,0.00,,2013-05-17 13:03:00,
2013-05-17 07:12:00,55.0,17.0,-100.00,West,281,1.0,6.0,22,0.00,,,0.00,,2013-05-17 13:12:00,
2013-05-17 07:23:00,55.0,17.0,-100.00,West,281,1.0,6.0,22,0.00,,,0.00,,2013-05-17 13:23:00,
2013-05-17 07:33:00,55.0,17.0,-100.00,West,281,1.0,6.0,22,0.00,,,0.00,,2013-05-17 13:33:00,
2013-05-17 07:40:00,64.0,17.0,-100.00,SSE,154,1.0,4.0,16,0.00,,,0.00,,2013-05-17 13:40:00,
2013-05-17 08:02:00,64.0,17.0,-100.00,SSE,154,1.0,4.0,16,0.00,,,0.00,,2013-05-17 14:02:00,
2013-05-17 08:40:00,68.0,19.0,-100.00,SE,134,2.0,6.0,15,0.00,,,0.00,,2013-05-17 14:40:00,
2013-05-17 09:03:00,68.0,19.0,-100.00,SE,134,2.0,6.0,15,0.00,,,0.00,,2013-05-17 15:03:00,
2013-05-17 09:14:00,68.0,19.0,-100.00,SE,134,2.0,6.0,15,0.00,,,0.00,,2013-05-17 15:14:00,
2013-05-17 09:25:00,68.0,19.0,-100.00,SE,134,2.0,6.0,15,0.00,,,0.00,,2013-05-17 15:25:00,
2013-05-17 09:37:00,68.0,19.0,-100.00,SE,134,2.0,6.0,15,0.00,,,0.00,,2013-05-17 15:37:00,
2013-05-17 09:40:00,71.0,18.0,-100.00,ESE,111,4.0,11.0,13,0.00,,,0.00,,2013-05-17 15:40:00,
2013-05-17 10:07:00,71.0,18.0,-100.00,ESE,111,4.0,11.0,13,0.00,,,0.00,,2013-05-17 16:07:00,
2013-05-17 10:13:00,71.0,18.0,-100.00,ESE,111,4.0,11.0,13,0.00,,,0.00,,2013-05-17 16:13:00,
2013-05-17 10:26:00,71.0,18.0,-100.00,ESE,111,4.0,11.0,13,0.00,,,0.00,,2013-05-17 16:26:00,
2013-05-17 10:37:00,71.0,18.0,-100.00,ESE,111,4.0,11.0,13,0.00,,,0.00,,2013-05-17 16:37:00,
2013-05-17 10:40:00,74.0,-99.9,-100.00,East,84,6.0,12.0,11,0.00,,,0.00,,2013-05-17 16:40:00,
2013-05-17 11:08:00,74.0,16.0,-100.00,East,84,6.0,12.0,11,0.00,,,0.00,,2013-05-17 17:08:00,
2013-05-17 11:19:00,74.0,16.0,-100.00,East,84,6.0,12.0,11,0.00,,,0.00,,2013-05-17 17:19:00,
2013-05-17 11:30:00,74.0,16.0,-100.00,East,84,6.0,12.0,11,0.00,,,0.00,,2013-05-17 17:30:00,
2013-05-17 11:40:00,77.0,-99.9,-100.00,East,92,6.0,12.0,10,0.00,,,0.00,,2013-05-17 17:40:00,
2013-05-17 12:09:00,77.0,16.0,-100.00,East,92,6.0,12.0,10,0.00,,,0.00,,2013-05-17 18:09:00,
2013-05-17 12:20:00,77.0,16.0,-100.00,East,92,6.0,12.0,10,0.00,,,0.00,,2013-05-17 18:20:00,
2013-05-17 12:30:00,77.0,16.0,-100.00,East,92,6.0,12.0,10,0.00,,,0.00,,2013-05-17 18:30:00,
2013-05-17 12:40:00,75.0,15.0,-100.00,NNW,344,4.0,12.0,10,0.00,,,0.00,,2013-05-17 18:40:00,
2013-05-17 13:10:00,75.0,15.0,-100.00,NNW,344,4.0,12.0,10,0.00,,,0.00,,2013-05-17 19:10:00,
2013-05-17 13:20:00,75.0,15.0,-100.00,NNW,344,4.0,12.0,10,0.00,,,0.00,,2013-05-17 19:20:00,
2013-05-17 13:30:00,75.0,15.0,-100.00,NNW,344,4.0,12.0,10,0.00,,,0.00,,2013-05-17 19:30:00,
2013-05-17 13:40:00,80.0,7.0,-100.00,West,271,5.0,10.0,6,0.00,,,0.00,,2013-05-17 19:40:00,
2013-05-17 14:09:00,80.0,7.0,-100.00,West,271,5.0,10.0,6,0.00,,,0.00,,2013-05-17 20:09:00,
2013-05-17 14:20:00,80.0,7.0,-100.00,West,271,5.0,10.0,6,0.00,,,0.00,,2013-05-17 20:20:00,
2013-05-17 14:30:00,80.0,7.0,-100.00,West,271,5.0,10.0,6,0.00,,,0.00,,2013-05-17 20:30:00,
2013-05-17 14:40:00,80.0,7.0,-100.00,WSW,253,7.0,20.0,6,0.00,,,0.00,,2013-05-17 20:40:00,
2013-05-17 15:07:00,80.0,7.0,-100.00,WSW,253,7.0,20.0,6,0.00,,,0.00,,2013-05-17 21:07:00,
2013-05-17 15:39:00,80.0,7.0,-100.00,WSW,253,7.0,20.0,6,0.00,,,0.00,,2013-05-17 21:39:00,
2013-05-17 15:40:00,82.0,15.0,-100.00,South,176,8.0,16.0,8,0.00,,,0.00,,2013-05-17 21:40:00,
2013-05-17 16:07:00,82.0,15.0,-100.00,South,176,8.0,16.0,8,0.00,,,0.00,,2013-05-17 22:07:00,
2013-05-17 16:17:00,82.0,15.0,-100.00,South,176,8.0,16.0,8,0.00,,,0.00,,2013-05-17 22:17:00,
2013-05-17 16:28:00,82.0,15.0,-100.00,South,176,8.0,16.0,8,0.00,,,0.00,,2013-05-17 22:28:00,
2013-05-17 16:38:00,82.0,15.0,-100.00,South,176,8.0,16.0,8,0.00,,,0.00,,2013-05-17 22:38:00,
2013-05-17 16:40:00,81.0,11.0,-100.00,SW,231,8.0,18.0,7,0.00,,,0.00,,2013-05-17 22:40:00,
2013-05-17 17:04:00,81.0,11.0,-100.00,SW,231,8.0,18.0,7,0.00,,,0.00,,2013-05-17 23:04:00,
2013-05-17 17:13:00,81.0,11.0,-100.00,SW,231,8.0,18.0,7,0.00,,,0.00,,2013-05-17 23:13:00,
2013-05-17 17:23:00,81.0,11.0,-100.00,SW,231,8.0,18.0,7,0.00,,,0.00,,2013-05-17 23:23:00,
2013-05-17 17:37:00,81.0,11.0,-100.00,SW,231,8.0,18.0,7,0.00,,,0.00,,2013-05-17 23:37:00,
2013-05-17 17:40:00,79.0,6.0,-100.00,SSW,192,8.0,19.0,6,0.00,,,0.00,,2013-05-17 23:40:00,
2013-05-17 18:02:00,79.0,6.0,-100.00,SSW,192,8.0,19.0,6,0.00,,,0.00,,2013-05-18 00:02:00,
2013-05-17 18:14:00,79.0,6.0,-100.00,SSW,192,8.0,19.0,6,0.00,,,0.00,,2013-05-18 00:14:00,
2013-05-17 18:22:00,79.0,6.0,-100.00,SSW,192,8.0,19.0,6,0.00,,,0.00,,2013-05-18 00:22:00,
2013-05-17 18:33:00,79.0,6.0,-100.00,SSW,192,8.0,19.0,6,0.00,,,0.00,,2013-05-18 00:33:00,
2013-05-17 18:40:00,77.0,5.0,-100.00,SSW,201,7.0,21.0,6,0.00,,,0.00,,2013-05-18 00:40:00,
2013-05-17 19:03:00,77.0,5.0,-100.00,SSW,201,7.0,21.0,6,0.00,,,0.00,,2013-05-18 01:03:00,
2013-05-17 19:13:00,77.0,5.0,-100.00,SSW,201,7.0,21.0,6,0.00,,,0.00,,2013-05-18 01:13:00,
2013-05-17 19:24:00,77.0,5.0,-100.00,SSW,201,7.0,21.0,6,0.00,,,0.00,,2013-05-18 01:24:00,
2013-05-17 19:32:00,77.0,5.0,-100.00,SSW,201,7.0,21.0,6,0.00,,,0.00,,2013-05-18 01:32:00,
2013-05-17 19:40:00,72.0,12.0,-100.00,SSW,194,5.0,17.0,10,0.00,,,0.00,,2013-05-18 01:40:00,
2013-05-17 20:02:00,72.0,12.0,-100.00,SSW,194,5.0,17.0,10,0.00,,,0.00,,2013-05-18 02:02:00,
2013-05-17 20:12:00,72.0,12.0,-100.00,SSW,194,5.0,17.0,10,0.00,,,0.00,,2013-05-18 02:12:00,
2013-05-17 20:22:00,72.0,12.0,-100.00,SSW,194,5.0,17.0,10,0.00,,,0.00,,2013-05-18 02:22:00,
2013-05-17 20:31:00,72.0,12.0,-100.00,SSW,194,5.0,17.0,10,0.00,,,0.00,,2013-05-18 02:31:00,
2013-05-17 20:40:00,72.0,17.0,-100.00,SW,227,11.0,26.0,12,0.00,,,0.00,,2013-05-18 02:40:00,
2013-05-17 21:03:00,72.0,17.0,-100.00,SW,227,11.0,26.0,12,0.00,,,0.00,,2013-05-18 03:03:00,
2013-05-17 21:12:00,72.0,17.0,-100.00,SW,227,11.0,26.0,12,0.00,,,0.00,,2013-05-18 03:12:00,
2013-05-17 21:22:00,72.0,17.0,-100.00,SW,227,11.0,26.0,12,0.00,,,0.00,,2013-05-18 03:22:00,
2013-05-17 21:33:00,72.0,17.0,-100.00,SW,227,11.0,26.0,12,0.00,,,0.00,,2013-05-18 03:33:00,
2013-05-17 21:40:00,70.0,19.0,-100.00,West,268,4.0,21.0,14,0.00,,,-99.99,,2013-05-18 03:40:00,
2013-05-17 22:03:00,70.0,19.0,-100.00,West,268,4.0,21.0,14,0.00,,,-99.99,,2013-05-18 04:03:00,
2013-05-17 22:12:00,70.0,19.0,-100.00,West,268,4.0,21.0,14,0.00,,,-99.99,,2013-05-18 04:12:00,
2013-05-17 22:23:00,70.0,19.0,-100.00,West,268,4.0,21.0,14,0.00,,,-99.99,,2013-05-18 04:23:00,
2013-05-17 22:33:00,70.0,19.0,-100.00,West,268,4.0,21.0,14,0.00,,,-99.99,,2013-05-18 04:33:00,
2013-05-17 22:40:00,68.0,14.0,-100.00,WNW,291,3.0,12.0,12,0.00,,,0.00,,2013-05-18 04:40:00,
2013-05-17 23:02:00,68.0,14.0,-100.00,WNW,291,3.0,12.0,12,0.00,,,0.00,,2013-05-18 05:02:00,
2013-05-17 23:13:00,68.0,14.0,-100.00,WNW,291,3.0,12.0,12,0.00,,,0.00,,2013-05-18 05:13:00,
2013-05-17 23:22:00,68.0,14.0,-100.00,WNW,291,3.0,12.0,12,0.00,,,0.00,,2013-05-18 05:22:00,
2013-05-17 23:32:00,68.0,14.0,-100.00,WNW,291,3.0,12.0,12,0.00,,,0.00,,2013-05-18 05:32:00,
2013-05-17 23:40:00,65.0,7.0,-100.00,WNW,298,5.0,12.0,10,0.00,,,0.00,,2013-05-18 05:40:00,